DW3973 Weather Reports


time (UTC)temp
C
wind
direction
speed
KPH
gust
KPH
rain 1hr
cm
rain 24hr
cm
rain mn
cm
humidity
%
barometer
mb
20240723050704 25 226 0.0 0.0 0.00 0.00 0.00 49 1012.0
20240723045703 25 226 0.0 0.0 0.00 0.00 0.00 47 1011.8
20240723045204 26 226 0.0 0.0 0.00 0.00 0.00 48 1011.9
20240723044703 26 225 0.0 0.0 0.00 0.00 0.00 47 1011.9
20240723044203 26 225 0.0 0.0 0.00 0.00 0.00 46 1011.9
20240723043203 26 225 0.0 0.0 0.00 0.00 0.00 46 1011.9
20240723042704 26 225 0.0 0.0 0.00 0.00 0.00 45 1011.6
20240723042203 26 225 0.0 3.2 0.00 0.00 0.00 45 1011.6
20240723041704 26 225 0.0 3.2 0.00 0.00 0.00 43 1011.6
20240723041203 26 221 0.0 8.0 0.00 0.00 0.00 43 1011.5
20240723040203 27 249 1.6 9.7 0.00 0.00 0.00 40 1011.6
20240723035704 27 253 4.8 9.7 0.00 0.00 0.00 39 1011.2
20240723035203 27 242 4.8 11.3 0.00 0.00 0.00 37 1011.2
20240723034704 27 281 0.0 12.9 0.00 0.00 0.00 34 1011.2
20240723034203 28 275 8.0 14.5 0.00 0.00 0.00 33 1010.9
20240723033703 28 273 1.6 14.5 0.00 0.00 0.00 32 1010.9
20240723032704 28 279 6.4 16.1 0.00 0.00 0.00 30 1010.8
20240723032204 28 263 3.2 16.1 0.00 0.00 0.00 30 1010.8
20240723031203 29 261 4.8 16.1 0.00 0.00 0.00 29 1010.8
20240723030704 29 256 0.0 16.1 0.00 0.00 0.00 29 1010.8
20240723030203 30 257 11.3 19.3 0.00 0.00 0.00 30 1010.9
20240723025703 30 284 14.5 19.3 0.00 0.00 0.00 29 1010.3
20240723025203 30 257 8.0 19.3 0.00 0.00 0.00 29 1010.4
20240723023704 31 308 3.2 22.5 0.00 0.00 0.00 28 1010.1
20240723023203 31 284 16.1 19.3 0.00 0.00 0.00 28 1010.2
20240723022704 32 337 12.9 19.3 0.00 0.00 0.00 28 1009.9
20240723022203 32 279 9.7 17.7 0.00 0.00 0.00 27 1010.0
20240723021704 32 275 12.9 17.7 0.00 0.00 0.00 28 1010.0
20240723021203 32 261 9.7 16.1 0.00 0.00 0.00 28 1009.8
20240723020703 33 313 1.6 14.5 0.00 0.00 0.00 28 1009.8
20240723020204 33 270 6.4 14.5 0.00 0.00 0.00 29 1009.8
20240723015703 33 265 12.9 14.5 0.00 0.00 0.00 29 1009.5
20240723015204 33 242 9.7 16.1 0.00 0.00 0.00 29 1009.5
20240723014703 33 292 12.9 17.7 0.00 0.00 0.00 29 1009.5
20240723014203 34 296 9.7 17.7 0.00 0.00 0.00 28 1009.5
20240723013703 34 284 14.5 20.9 0.00 0.00 0.00 28 1009.5
20240723013204 35 309 11.3 20.9 0.00 0.00 0.00 27 1009.5
20240723012704 35 333 8.0 17.7 0.00 0.00 0.00 26 1009.3
20240723011703 35 327 6.4 17.7 0.00 0.00 0.00 25 1009.4
20240723011203 35 275 11.3 16.1 0.00 0.00 0.00 24 1009.4
20240723010704 36 300 9.7 16.1 0.00 0.00 0.00 24 1009.4
20240723010203 36 238 11.3 16.1 0.00 0.00 0.00 25 1009.4
20240723005704 36 293 14.5 17.7 0.00 0.00 0.00 25 1009.2
20240723005203 36 297 8.0 17.7 0.00 0.00 0.00 26 1009.2
20240723004703 36 288 12.9 17.7 0.00 0.00 0.00 24 1009.2
20240723004203 36 317 9.7 16.1 0.00 0.00 0.00 25 1009.2
20240723003203 36 317 11.3 16.1 0.00 0.00 0.00 24 1009.2
20240723002703 36 348 11.3 19.3 0.00 0.00 0.00 23 1009.3
20240723002203 36 275 4.8 19.3 0.00 0.00 0.00 23 1009.3
20240723001203 37 261 16.1 19.3 0.00 0.00 0.00 23 1009.3
20240723000703 36 251 0.0 19.3 0.00 0.00 0.00 22 1009.2
20240723000204 37 277 14.5 19.3 0.00 0.00 0.00 22 1009.3
20240722235703 37 316 6.4 19.3 0.00 0.00 0.00 22 1009.4
20240722234703 36 327 3.2 16.1 0.00 0.00 0.00 23 1009.4
20240722234203 37 321 11.3 16.1 0.00 0.00 0.00 23 1009.4
20240722233703 36 290 3.2 17.7 0.00 0.00 0.00 24 1009.4
20240722232702 37 320 8.0 17.7 0.00 0.00 0.00 25 1009.5
20240722232203 36 295 12.9 20.9 0.00 0.00 0.00 25 1009.5
20240722231703 36 342 4.8 20.9 0.00 0.00 0.00 25 1009.5
20240722230702 36 325 11.3 22.5 0.00 0.00 0.00 26 1009.7
20240722230203 36 293 11.3 19.3 0.00 0.00 0.00 25 1009.6
20240722225703 36 30 6.4 17.7 0.00 0.00 0.00 25 1009.6
20240722225202 36 277 9.7 24.1 0.00 0.00 0.00 26 1009.7
20240722224203 36 316 9.7 22.5 0.00 0.00 0.00 26 1009.8
20240722223702 36 281 12.9 22.5 0.00 0.00 0.00 26 1009.7
20240722223202 36 282 17.7 22.5 0.00 0.00 0.00 27 1009.8
20240722222202 36 346 6.4 22.5 0.00 0.00 0.00 26 1010.1
20240722221702 36 290 12.9 20.9 0.00 0.00 0.00 26 1010.1
20240722221202 36 322 17.7 22.5 0.00 0.00 0.00 27 1010.3
20240722220703 36 340 11.3 22.5 0.00 0.00 0.00 27 1010.3
20240722215702 36 337 12.9 20.9 0.00 0.00 0.00 26 1010.3
20240722214203 36 265 11.3 22.5 0.00 0.00 0.00 26 1010.4
20240722213202 36 350 22.5 22.5 0.00 0.00 0.00 27 1010.4
20240722212703 36 348 9.7 19.3 0.00 0.00 0.00 27 1010.5
20240722211702 36 338 12.9 19.3 0.00 0.00 0.00 27 1010.5
20240722211203 36 322 12.9 22.5 0.00 0.00 0.00 28 1010.8
20240722210702 36 329 17.7 22.5 0.00 0.00 0.00 26 1010.7
20240722205202 36 300 14.5 20.9 0.00 0.00 0.00 27 1010.8
20240722204702 36 318 14.5 22.5 0.00 0.00 0.00 26 1010.8
20240722204202 36 305 14.5 22.5 0.00 0.00 0.00 27 1011.0
20240722203702 36 269 19.3 22.5 0.00 0.00 0.00 28 1011.1
20240722203202 36 338 8.0 22.5 0.00 0.00 0.00 28 1011.1
20240722202702 36 348 4.8 22.5 0.00 0.00 0.00 28 1011.3
20240722202202 36 348 14.5 17.7 0.00 0.00 0.00 27 1011.2
20240722201702 36 336 12.9 17.7 0.00 0.00 0.00 28 1011.3
20240722201202 36 309 9.7 22.5 0.00 0.00 0.00 28 1011.4
20240722200202 36 241 3.2 25.7 0.00 0.00 0.00 29 1011.3
20240722195702 36 286 6.4 20.9 0.00 0.00 0.00 29 1011.4
20240722195201 36 5 4.8 20.9 0.00 0.00 0.00 28 1011.3
20240722194702 36 275 19.3 19.3 0.00 0.00 0.00 28 1011.3
20240722193701 36 285 11.3 19.3 0.00 0.00 0.00 27 1011.3
20240722193202 36 324 8.0 19.3 0.00 0.00 0.00 25 1011.3
20240722192702 36 321 8.0 19.3 0.00 0.00 0.00 26 1011.3
20240722192201 35 267 16.1 19.3 0.00 0.00 0.00 27 1011.2
20240722191701 35 355 11.3 19.3 0.00 0.00 0.00 28 1011.2
20240722191201 35 355 11.3 17.7 0.00 0.00 0.00 25 1011.2
20240722190202 35 268 11.3 20.9 0.00 0.00 0.00 24 1011.2
20240722185701 35 272 12.9 20.9 0.00 0.00 0.00 26 1011.2
20240722184702 35 279 11.3 22.5 0.00 0.00 0.00 28 1011.2
20240722184201 34 302 19.3 24.1 0.00 0.00 0.00 30 1011.3
20240722183701 34 311 14.5 24.1 0.00 0.00 0.00 29 1011.2
20240722183202 34 321 12.9 20.9 0.00 0.00 0.00 31 1011.3
20240722182701 34 284 9.7 20.9 0.00 0.00 0.00 31 1011.4
20240722182202 33 270 16.1 19.3 0.00 0.00 0.00 33 1011.4
20240722181701 33 350 6.4 19.3 0.00 0.00 0.00 33 1011.4
20240722181201 33 331 9.7 20.9 0.00 0.00 0.00 33 1011.5
20240722180702 33 360 12.9 20.9 0.00 0.00 0.00 33 1011.5
20240722180201 33 313 3.2 17.7 0.00 0.00 0.00 32 1011.5
20240722175702 33 321 14.5 20.9 0.00 0.00 0.00 32 1011.7
20240722175201 33 288 14.5 20.9 0.00 0.00 0.00 31 1011.6
20240722174701 33 288 16.1 20.9 0.00 0.00 0.00 32 1011.7
20240722174201 33 253 12.9 17.7 0.00 0.00 0.00 31 1011.8
20240722172701 33 290 8.0 17.7 0.00 0.00 0.00 29 1011.6
20240722172202 33 289 12.9 17.7 0.00 0.00 0.00 29 1011.6
20240722171701 33 302 8.0 12.9 0.00 0.00 0.00 30 1011.6
20240722171201 32 315 4.8 14.5 0.00 0.00 0.00 31 1011.5
20240722170701 32 323 6.4 14.5 0.00 0.00 0.00 32 1011.5
20240722170202 32 277 6.4 12.9 0.00 0.00 0.00 30 1011.5
20240722165701 32 310 9.7 9.7 0.00 0.00 0.00 31 1011.7
20240722165201 31 290 0.0 11.3 0.00 0.00 0.00 33 1011.6
20240722164702 31 319 1.6 11.3 0.00 0.00 0.00 34 1011.6
20240722164202 31 360 4.8 11.3 0.00 0.00 0.00 33 1011.7
20240722163202 31 272 0.0 8.0 0.00 0.00 0.00 31 1011.6
20240722162702 30 344 4.8 8.0 0.00 0.00 0.00 33 1011.7
20240722162201 30 341 8.0 8.0 0.00 0.00 0.00 34 1011.7
20240722161701 30 5 6.4 6.4 0.00 0.00 0.00 36 1011.6
20240722160702 30 319 0.0 11.3 0.00 0.00 0.00 37 1011.9
20240722155201 28 277 0.0 4.8 0.00 0.00 0.00 38 1011.9
20240722153201 28 296 0.0 3.2 0.00 0.00 0.00 39 1011.7
20240722152701 28 306 0.0 3.2 0.00 0.00 0.00 38 1012.0
20240722151701 27 309 0.0 3.2 0.00 0.00 0.00 41 1011.9
20240722151201 27 250 0.0 0.0 0.00 0.00 0.00 44 1011.8
20240722150701 26 250 0.0 0.0 0.00 0.00 0.00 46 1011.7
20240722150201 26 250 0.0 1.6 0.00 0.00 0.00 49 1011.7
20240722145701 26 249 0.0 1.6 0.00 0.00 0.00 50 1011.9
20240722145201 25 249 0.0 1.6 0.00 0.00 0.00 51 1011.8
20240722144701 25 249 0.0 0.0 0.00 0.00 0.00 53 1011.8
20240722144201 23 248 0.0 1.6 0.00 0.00 0.00 56 1012.0
20240722143701 23 248 0.0 1.6 0.00 0.00 0.00 58 1011.9
20240722142701 23 249 0.0 1.6 0.00 0.00 0.00 59 1011.7
20240722142200 23 153 0.0 4.8 0.00 0.00 0.00 59 1011.7
20240722141701 23 153 0.0 4.8 0.00 0.00 0.00 60 1011.8
20240722141200 23 192 3.2 3.2 0.00 0.00 0.00 54 1011.7
20240722140701 23 192 0.0 4.8 0.00 0.00 0.00 54 1011.6
20240722140201 22 192 1.6 4.8 0.00 0.00 0.00 56 1011.6
20240722135700 22 190 1.6 8.0 0.00 0.00 0.00 59 1011.6
20240722135201 21 196 3.2 8.0 0.00 0.00 0.00 64 1011.6
20240722134200 21 119 0.0 1.6 0.00 0.00 0.00 68 1011.6
20240722133701 21 189 0.0 0.0 0.00 0.00 0.00 67 1011.6
20240722133200 21 189 0.0 0.0 0.00 0.00 0.00 67 1011.5
20240722132700 21 189 0.0 0.0 0.00 0.00 0.00 69 1011.8
20240722132200 21 189 0.0 0.0 0.00 0.00 0.00 70 1011.8
20240722131701 20 213 0.0 0.0 0.00 0.00 0.00 71 1011.8
20240722131201 20 217 0.0 0.0 0.00 0.00 0.00 71 1011.7
20240722130201 20 252 0.0 0.0 0.00 0.00 0.00 73 1011.7
20240722125700 20 252 0.0 0.0 0.00 0.00 0.00 73 1011.7
20240722125200 20 252 0.0 0.0 0.00 0.00 0.00 71 1011.7
20240722124200 20 252 0.0 0.0 0.00 0.00 0.00 71 1011.6
20240722123701 20 252 0.0 0.0 0.00 0.00 0.00 71 1011.6
20240722123201 20 252 0.0 3.2 0.00 0.00 0.00 71 1011.6
20240722122700 20 252 0.0 3.2 0.00 0.00 0.00 70 1011.6
20240722122200 20 244 0.0 6.4 0.00 0.00 0.00 69 1011.5
20240722121700 20 241 0.0 6.4 0.00 0.00 0.00 70 1011.5
20240722121200 20 226 4.8 6.4 0.00 0.00 0.00 73 1011.5
20240722120200 20 213 0.0 1.6 0.00 0.00 0.00 75 1011.5
20240722115700 20 213 0.0 0.0 0.00 0.00 0.00 72 1011.6
20240722115201 20 213 0.0 0.0 0.00 0.00 0.00 71 1011.6
20240722114700 20 213 0.0 0.0 0.00 0.00 0.00 71 1011.7
20240722113700 20 212 0.0 1.6 0.00 0.00 0.00 69 1011.7
20240722113200 20 212 0.0 1.6 0.00 0.00 0.00 68 1011.7
20240722112700 21 211 0.0 4.8 0.00 0.00 0.00 67 1011.4
20240722112200 20 211 0.0 4.8 0.00 0.00 0.00 69 1011.4
20240722111200 20 227 0.0 1.6 0.00 0.00 0.00 68 1011.2
20240722110700 20 227 0.0 3.2 0.00 0.00 0.00 68 1011.2
20240722110200 20 229 0.0 4.8 0.00 0.00 0.00 69 1011.2
20240722105701 20 231 0.0 4.8 0.00 0.00 0.00 68 1011.6
20240722105200 20 266 1.6 3.2 0.00 0.00 0.00 68 1011.6
20240722104700 20 266 0.0 3.2 0.00 0.00 0.00 67 1011.6
20240722103700 20 266 0.0 0.0 0.00 0.00 0.00 68 1011.7
20240722103200 21 267 0.0 0.0 0.00 0.00 0.00 68 1011.8
20240722102700 21 267 0.0 0.0 0.00 0.00 0.00 68 1011.9
20240722102200 21 267 0.0 0.0 0.00 0.00 0.00 69 1011.9
20240722101700 21 267 0.0 0.0 0.00 0.00 0.00 69 1011.9
20240722100159 20 267 0.0 3.2 0.00 0.00 0.00 69 1011.9
20240722095700 20 265 0.0 4.8 0.00 0.00 0.00 68 1011.9
20240722095200 20 265 0.0 4.8 0.00 0.00 0.00 68 1011.9
20240722094700 21 296 0.0 0.0 0.00 0.00 0.00 71 1012.0
20240722093700 21 296 0.0 4.8 0.00 0.00 0.00 71 1011.9
20240722092700 21 248 0.0 8.0 0.00 0.00 0.00 67 1012.1
20240722092159 21 229 6.4 8.0 0.00 0.00 0.00 68 1012.1
20240722091700 21 230 0.0 4.8 0.00 0.00 0.00 70 1012.1
20240722091200 21 234 0.0 3.2 0.00 0.00 0.00 71 1012.1
20240722090659 21 231 0.0 3.2 0.00 0.00 0.00 71 1012.1
20240722090200 21 228 0.0 3.2 0.00 0.00 0.00 70 1012.1
20240722085659 21 228 0.0 6.4 0.00 0.00 0.00 68 1012.4
20240722085200 21 229 0.0 6.4 0.00 0.00 0.00 67 1012.4
20240722084700 21 234 4.8 4.8 0.00 0.00 0.00 66 1012.4
20240722084159 21 253 1.6 1.6 0.00 0.00 0.00 64 1012.4
20240722083659 21 244 0.0 4.8 0.00 0.00 0.00 62 1012.4
20240722083159 21 241 0.0 4.8 0.00 0.00 0.00 59 1012.4
20240722082659 21 261 0.0 0.0 0.00 0.00 0.00 59 1012.4
20240722081659 21 261 0.0 0.0 0.00 0.00 0.00 60 1012.4
20240722081159 21 261 0.0 0.0 0.00 0.00 0.00 62 1012.4
20240722080700 21 261 0.0 0.0 0.00 0.00 0.00 62 1012.4
20240722080159 21 264 0.0 0.0 0.00 0.00 0.00 63 1012.4
20240722075659 22 264 0.0 0.0 0.00 0.00 0.00 61 1012.4
20240722075159 22 264 0.0 0.0 0.00 0.00 0.00 61 1012.4
20240722074659 22 264 0.0 0.0 0.00 0.00 0.00 62 1012.4
20240722073659 21 264 0.0 0.0 0.00 0.00 0.00 65 1012.4
20240722073159 21 264 0.0 0.0 0.00 0.00 0.00 66 1012.5
20240722072659 21 264 0.0 0.0 0.00 0.00 0.00 69 1012.8
20240722072159 21 264 0.0 0.0 0.00 0.00 0.00 69 1012.8
20240722071659 21 264 0.0 0.0 0.00 0.00 0.00 70 1012.8
20240722071159 21 264 0.0 0.0 0.00 0.00 0.00 69 1012.8
20240722070159 21 264 0.0 0.0 0.00 0.00 0.00 69 1012.8
20240722065659 22 264 0.0 0.0 0.00 0.00 0.00 69 1012.9
20240722064159 22 264 0.0 0.0 0.00 0.00 0.00 68 1012.9
20240722063659 22 264 0.0 0.0 0.00 0.00 0.00 68 1012.9
20240722062659 22 265 0.0 3.2 0.00 0.00 0.00 68 1012.8
20240722062159 22 265 0.0 3.2 0.00 0.00 0.00 67 1012.8
20240722061159 22 267 0.0 0.0 0.00 0.00 0.00 67 1012.8
20240722060659 22 267 0.0 3.2 0.00 0.00 0.00 67 1012.8
20240722060159 22 266 0.0 3.2 0.00 0.00 0.00 67 1012.8
20240722054659 23 273 1.6 4.8 0.00 0.00 0.00 65 1012.7
20240722054159 23 271 0.0 4.8 0.00 0.00 0.00 65 1012.7
20240722053159 23 273 0.0 0.0 0.00 0.00 0.00 63 1012.7
20240722052659 23 273 0.0 0.0 0.00 0.00 0.00 63 1012.7
20240722051658 24 276 0.0 0.0 0.00 0.00 0.00 62 1012.8